Flag for United Kingdom Weather past 2 weeks in Darlington, England, United Kingdom

Now
52 °F

Passing clouds.


Feels Like: 45 °F
Forecast: 43 / 54 °F
Wind: 24 mph from West

Location: Tees-Side

Current Time: Oct 21, 2014 at 11:28:03 AM

Latest Report: Oct 21, 2014 at 10:50 AM


Visibility: N/A

Pressure: 29.39 "Hg

Humidity: 62%

Dew point: 39 °F

Location of DarlingtonLocation

Historic Weather in Darlington — Graph

°F

Darlington temperature yesterday

Maximum temperature yesterday: 59 °F (at 3:50 PM)
Minimum temperature yesterday: 52 °F (at 5:50 AM)
Average temperature yesterday: 54 °F

Past Weeks' High & Low Weather Summary

 TemperatureHumidityPressure
High66 °F (Oct 18, 1:50 PM)100% (Oct 7, 7:20 AM)29.92 "Hg (Oct 7, 7:20 AM)
Low37 °F (Oct 12, 6:50 AM)51% (Oct 12, 3:50 PM)29.15 "Hg (Oct 8, 7:50 PM)
Average53 °F82%29.62 "Hg
* Reported Oct 6 10:20 AM — Oct 21 10:20 AM, Darlington, Weather by CustomWeather, © 2014

Note: Actual official high and low records may vary slightly from our data, if they occured in-between our weather recording intervals... More about our weather records

Advertising

Darlington weather history for previous 24 hours

 ConditionsComfort  
Time TempWeatherWind HumidityBarometerVisibility
10:20 AM
Oct 21
52 °FPassing clouds.23 mph58%29.39 "HgN/A
9:50 AM50 °FPassing clouds.21 mph71%29.36 "HgN/A
9:20 AM50 °FPassing clouds.21 mph71%29.36 "HgN/A
8:50 AM52 °FPassing clouds.25 mph62%29.33 "HgN/A
8:20 AM52 °FPassing clouds.24 mph72%29.30 "HgN/A
7:50 AM52 °FPassing clouds.28 mph72%29.27 "HgN/A
7:20 AM54 °FPassing clouds.23 mph72%29.24 "HgN/A
6:50 AM55 °FScattered showers. Passing clouds.24 mph82%29.18 "Hg6 mi
6:20 AM54 °FPassing clouds.21 mph94%29.18 "HgN/A
5:50 AM54 °FLight rain. Passing clouds.25 mph94%29.21 "HgN/A
9:20 PM
Oct 20
52 °FPassing clouds.9 mph88%29.71 "HgN/A
8:50 PM54 °FPassing clouds.14 mph82%29.71 "HgN/A
8:20 PM52 °FPassing clouds.10 mph88%29.74 "HgN/A
7:50 PM52 °FPassing clouds.15 mph88%29.74 "HgN/A
7:20 PM52 °FPassing clouds.14 mph88%29.74 "HgN/A
6:50 PM52 °FPassing clouds.13 mph88%29.77 "HgN/A
6:20 PM54 °FPassing clouds.14 mph77%29.77 "HgN/A
5:50 PM54 °FPassing clouds.13 mph77%29.77 "HgN/A
5:20 PM55 °FPassing clouds.13 mph72%29.77 "HgN/A
4:50 PM57 °FPassing clouds.16 mph72%29.77 "HgN/A
4:20 PM57 °FPassing clouds.15 mph67%29.77 "HgN/A
3:50 PM59 °FPassing clouds.14 mph68%29.80 "HgN/A
3:20 PM57 °FPassing clouds.15 mph67%29.80 "HgN/A
2:50 PM57 °FPassing clouds.13 mph67%29.80 "HgN/A
2:20 PM57 °FPassing clouds.14 mph72%29.80 "HgN/A
1:50 PM57 °FPassing clouds.15 mph72%29.80 "HgN/A
1:20 PM57 °FPassing clouds.15 mph72%29.83 "HgN/A
12:50 PM55 °FScattered clouds.16 mph72%29.83 "HgN/A
12:20 PM55 °FScattered clouds.16 mph72%29.83 "HgN/A
11:50 AM55 °FScattered clouds.12 mph77%29.83 "HgN/A
11:20 AM55 °FScattered clouds.15 mph72%29.83 "HgN/A
Weather by CustomWeather, © 2014

See weather overviewHow to use our weather pages